KZR131 UAAA-UTDD

Flight info

Callsign KZR131
Flight time 1h 40m
Altitude 38000
Route EKLAT DCT SULET L143 TISIB L177 AMEMA A103 SX
Aircraft A20N/M-SDE2E3FGHIRWXY/LB1

Departure

Time 2026-05-08 07:38
Airport Almaty International Airport (UAAA)

Arrival

Time 2026-05-08 09:18
Airport Dushanbe International Airport (UTDD)
Time Latitude Longitude Altitude Speed Heading
2026-05-08 07:02 43.34959 77.01293 2232 ft 0 kts 246°
2026-05-08 07:24 43.34960 77.01296 2232 ft 3 kts 246°
2026-05-08 07:24 43.34969 77.01322 2230 ft 3 kts 246°
2026-05-08 07:25 43.34977 77.01347 2228 ft 3 kts 245°
2026-05-08 07:25 43.34986 77.01372 2231 ft 3 kts 243°
2026-05-08 07:25 43.35003 77.01407 2232 ft 1 kts 213°
2026-05-08 07:26 43.35011 77.01411 2232 ft 1 kts 184°
2026-05-08 07:26 43.35023 77.01409 2229 ft 2 kts 162°
2026-05-08 07:26 43.35031 77.01405 2232 ft 3 kts 158°
2026-05-08 07:26 43.35013 77.01415 2232 ft 3 kts 158°
2026-05-08 07:27 43.34993 77.01426 2232 ft 3 kts 158°
2026-05-08 07:27 43.34974 77.01437 2230 ft 3 kts 158°
2026-05-08 07:27 43.34955 77.01448 2232 ft 2 kts 158°
2026-05-08 07:27 43.34954 77.01448 2232 ft 0 kts 158°
2026-05-08 07:31 43.34951 77.01450 2232 ft 2 kts 156°
2026-05-08 07:31 43.34927 77.01468 2232 ft 4 kts 151°
2026-05-08 07:31 43.34918 77.01474 2230 ft 0 kts 152°
2026-05-08 07:33 43.34909 77.01480 2232 ft 4 kts 156°
2026-05-08 07:33 43.34877 77.01499 2232 ft 5 kts 157°
2026-05-08 07:33 43.34845 77.01507 2232 ft 4 kts 182°
2026-05-08 07:33 43.34805 77.01492 2229 ft 8 kts 199°
2026-05-08 07:34 43.34750 77.01465 2232 ft 9 kts 200°
2026-05-08 07:34 43.34691 77.01437 2232 ft 8 kts 186°
2026-05-08 07:34 43.34639 77.01460 2232 ft 8 kts 165°
2026-05-08 07:34 43.34586 77.01466 2232 ft 8 kts 169°
2026-05-08 07:35 43.34536 77.01495 2232 ft 8 kts 155°
2026-05-08 07:35 43.34483 77.01528 2233 ft 9 kts 155°
2026-05-08 07:35 43.34419 77.01568 2233 ft 11 kts 156°
2026-05-08 07:35 43.34349 77.01613 2233 ft 11 kts 155°
2026-05-08 07:36 43.34282 77.01655 2233 ft 10 kts 155°
2026-05-08 07:36 43.34218 77.01695 2233 ft 10 kts 156°
2026-05-08 07:36 43.34165 77.01750 2233 ft 10 kts 116°
2026-05-08 07:36 43.34168 77.01832 2233 ft 9 kts 62°
2026-05-08 07:37 43.34203 77.01904 2233 ft 15 kts 56°
2026-05-08 07:37 43.34384 77.02266 2234 ft 79 kts 56°
2026-05-08 07:37 43.34804 77.03113 2229 ft 137 kts 56°
2026-05-08 07:37 43.35425 77.04367 2339 ft 170 kts 55°
2026-05-08 07:38 43.36087 77.05688 2923 ft 168 kts 55°
2026-05-08 07:38 43.36761 77.07048 3599 ft 176 kts 56°
2026-05-08 07:38 43.37460 77.08432 4483 ft 176 kts 54°
2026-05-08 07:38 43.38186 77.09784 5364 ft 176 kts 52°
2026-05-08 07:39 43.38969 77.11159 6004 ft 193 kts 51°
2026-05-08 07:39 43.39875 77.12703 6431 ft 223 kts 50°
2026-05-08 07:39 43.40896 77.14491 6808 ft 251 kts 51°
2026-05-08 07:39 43.42218 77.16209 7309 ft 274 kts 28°
2026-05-08 07:40 43.44078 77.16812 8013 ft 284 kts 355°
2026-05-08 07:40 43.45975 77.16052 8842 ft 288 kts 333°
2026-05-08 07:40 43.47749 77.14839 9877 ft 288 kts 330°
2026-05-08 07:40 43.49553 77.13527 10619 ft 301 kts 330°
2026-05-08 07:41 43.51475 77.12133 11062 ft 321 kts 328°
2026-05-08 07:41 43.53257 77.10240 11710 ft 328 kts 311°
2026-05-08 07:41 43.54764 77.07858 12551 ft 331 kts 303°
2026-05-08 07:41 43.55826 77.05055 13469 ft 331 kts 286°
2026-05-08 07:42 43.56132 77.01920 14334 ft 333 kts 268°
2026-05-08 07:42 43.55905 76.98716 15118 ft 339 kts 262°
2026-05-08 07:42 43.55539 76.95480 15869 ft 344 kts 261°
2026-05-08 07:42 43.55146 76.92248 16611 ft 349 kts 261°
2026-05-08 07:43 43.54737 76.88927 17364 ft 354 kts 261°
2026-05-08 07:43 43.54317 76.85514 18105 ft 359 kts 261°
2026-05-08 07:43 43.53903 76.82144 18759 ft 363 kts 261°
2026-05-08 07:43 43.53479 76.78696 19414 ft 367 kts 261°
2026-05-08 07:44 43.53050 76.75212 20083 ft 370 kts 261°
2026-05-08 07:44 43.52615 76.71696 20733 ft 374 kts 261°
2026-05-08 07:44 43.52177 76.68151 21369 ft 377 kts 261°
2026-05-08 07:44 43.51735 76.64577 21994 ft 380 kts 261°
2026-05-08 07:45 43.51287 76.60974 22593 ft 384 kts 261°
2026-05-08 07:45 43.50834 76.57332 23198 ft 387 kts 261°
2026-05-08 07:45 43.50381 76.53706 23762 ft 391 kts 261°
2026-05-08 07:45 43.49917 76.50002 24270 ft 394 kts 261°
2026-05-08 07:46 43.49448 76.46267 24767 ft 397 kts 261°
2026-05-08 07:46 43.48974 76.42499 25263 ft 400 kts 261°
2026-05-08 07:46 43.48496 76.38714 25749 ft 403 kts 261°
2026-05-08 07:46 43.48012 76.34891 26223 ft 406 kts 261°
2026-05-08 07:47 43.47524 76.31049 26684 ft 409 kts 261°
2026-05-08 07:47 43.47031 76.27180 27131 ft 412 kts 261°
2026-05-08 07:47 43.46533 76.23279 27569 ft 415 kts 261°
2026-05-08 07:47 43.46032 76.19363 27993 ft 417 kts 261°
2026-05-08 07:48 43.45531 76.15466 28397 ft 420 kts 261°
2026-05-08 07:48 43.45020 76.11500 28796 ft 423 kts 260°
2026-05-08 07:48 43.44510 76.07548 29180 ft 426 kts 260°
2026-05-08 07:48 43.43989 76.03525 29569 ft 428 kts 260°
2026-05-08 07:49 43.43464 75.99480 29943 ft 431 kts 260°
2026-05-08 07:49 43.42933 75.95404 30269 ft 434 kts 260°
2026-05-08 07:49 43.42397 75.91304 30602 ft 436 kts 260°
2026-05-08 07:49 43.41859 75.87195 30926 ft 438 kts 260°
2026-05-08 07:50 43.41318 75.83076 31345 ft 437 kts 259°
2026-05-08 07:50 43.40785 75.79032 31832 ft 434 kts 259°
2026-05-08 07:50 43.40247 75.74961 32311 ft 432 kts 259°
2026-05-08 07:50 43.39710 75.70911 32780 ft 429 kts 259°
2026-05-08 07:51 43.39174 75.66878 33231 ft 427 kts 259°
2026-05-08 07:51 43.38640 75.62873 33671 ft 426 kts 259°
2026-05-08 07:51 43.38107 75.58881 34083 ft 424 kts 259°
2026-05-08 07:51 43.37498 75.54933 34432 ft 422 kts 254°
2026-05-08 07:52 43.36630 75.51087 34758 ft 421 kts 251°
2026-05-08 07:52 43.35639 75.47310 35080 ft 420 kts 249°
2026-05-08 07:52 43.34586 75.43581 35392 ft 419 kts 249°
2026-05-08 07:52 43.33521 75.39913 35672 ft 418 kts 249°
2026-05-08 07:53 43.32440 75.36208 35947 ft 418 kts 249°
2026-05-08 07:53 43.31364 75.32500 36225 ft 418 kts 249°
2026-05-08 07:53 43.30296 75.28790 36503 ft 417 kts 249°
2026-05-08 07:53 43.29237 75.25089 36744 ft 417 kts 249°
2026-05-08 07:54 43.28181 75.21384 37023 ft 417 kts 249°
2026-05-08 07:54 43.27127 75.17679 37315 ft 416 kts 249°
2026-05-08 07:54 43.26077 75.13991 37586 ft 415 kts 250°
2026-05-08 07:54 43.25026 75.10302 37853 ft 415 kts 250°
2026-05-08 07:55 43.23989 75.06670 38007 ft 416 kts 250°
2026-05-08 07:55 43.21879 74.99298 38014 ft 414 kts 250°
2026-05-08 07:56 43.19773 74.91966 38010 ft 413 kts 250°
2026-05-08 07:56 43.17662 74.84640 38018 ft 413 kts 249°
2026-05-08 07:57 43.15550 74.77327 38012 ft 413 kts 249°
2026-05-08 07:57 43.13444 74.70060 38024 ft 413 kts 249°
2026-05-08 07:58 43.11323 74.62763 38025 ft 413 kts 249°
2026-05-08 07:58 43.08617 74.55842 38025 ft 414 kts 238°
2026-05-08 07:59 43.04984 74.49710 38014 ft 416 kts 229°
2026-05-08 07:59 43.00949 74.44101 38017 ft 417 kts 227°
2026-05-08 08:00 42.96816 74.38539 38023 ft 417 kts 227°
2026-05-08 08:00 42.92690 74.32977 38016 ft 417 kts 227°
2026-05-08 08:01 42.88578 74.27405 38028 ft 417 kts 227°
2026-05-08 08:01 42.84468 74.21830 38040 ft 417 kts 227°
2026-05-08 08:02 42.80381 74.16296 38054 ft 417 kts 227°
2026-05-08 08:02 42.76267 74.10739 38078 ft 417 kts 227°
2026-05-08 08:03 42.72148 74.05187 38094 ft 417 kts 227°
2026-05-08 08:03 42.68020 73.99634 38124 ft 417 kts 227°
2026-05-08 08:04 42.63925 73.94135 38134 ft 417 kts 227°
2026-05-08 08:04 42.59792 73.88598 38137 ft 417 kts 227°
2026-05-08 08:05 42.55660 73.83070 38150 ft 417 kts 227°
2026-05-08 08:05 42.51527 73.77553 38177 ft 417 kts 227°
2026-05-08 08:06 42.47419 73.72082 38193 ft 417 kts 227°
2026-05-08 08:06 42.43274 73.66571 38212 ft 417 kts 227°
2026-05-08 08:07 42.39535 73.60641 38231 ft 413 kts 240°
2026-05-08 08:07 42.36740 73.53861 38243 ft 413 kts 244°
2026-05-08 08:08 42.34155 73.46924 38252 ft 413 kts 245°
2026-05-08 08:08 42.31618 73.40019 38255 ft 413 kts 245°
2026-05-08 08:09 42.29041 73.33078 38262 ft 414 kts 245°
2026-05-08 08:09 42.26442 73.26149 38259 ft 414 kts 244°
2026-05-08 08:10 42.23833 73.19221 38254 ft 414 kts 244°
2026-05-08 08:10 42.21218 73.12294 38248 ft 414 kts 244°
2026-05-08 08:11 42.18620 73.05426 38232 ft 414 kts 244°
2026-05-08 08:11 42.16000 72.98515 38234 ft 414 kts 244°
2026-05-08 08:12 42.13377 72.91616 38223 ft 413 kts 244°
2026-05-08 08:12 42.10754 72.84731 38212 ft 413 kts 244°
2026-05-08 08:13 42.08129 72.77858 38209 ft 413 kts 244°
2026-05-08 08:13 42.05518 72.71037 38219 ft 412 kts 244°
2026-05-08 08:14 42.02889 72.64186 38218 ft 412 kts 244°
2026-05-08 08:14 42.00256 72.57343 38215 ft 412 kts 244°
2026-05-08 08:15 41.97619 72.50500 38219 ft 412 kts 244°
2026-05-08 08:15 41.94982 72.43677 38224 ft 412 kts 244°
2026-05-08 08:16 41.92356 72.36898 38224 ft 412 kts 244°
2026-05-08 08:16 41.89721 72.30113 38218 ft 407 kts 244°
2026-05-08 08:17 41.87105 72.23392 38217 ft 406 kts 244°
2026-05-08 08:17 41.84484 72.16674 38223 ft 407 kts 244°
2026-05-08 08:18 41.81856 72.09950 38217 ft 408 kts 244°
2026-05-08 08:18 41.79237 72.03268 38207 ft 408 kts 244°
2026-05-08 08:19 41.76593 71.96536 38201 ft 408 kts 244°
2026-05-08 08:19 41.73945 71.89808 38201 ft 409 kts 244°
2026-05-08 08:20 41.71381 71.83021 38188 ft 408 kts 246°
2026-05-08 08:20 41.68919 71.76180 38184 ft 408 kts 246°
2026-05-08 08:21 41.66476 71.69375 38180 ft 409 kts 246°
2026-05-08 08:21 41.63997 71.62526 38174 ft 409 kts 246°
2026-05-08 08:22 41.61507 71.55690 38168 ft 409 kts 246°
2026-05-08 08:22 41.59010 71.48853 38161 ft 409 kts 246°
2026-05-08 08:23 41.56507 71.42019 38167 ft 409 kts 246°
2026-05-08 08:23 41.54022 71.35250 38173 ft 409 kts 246°
2026-05-08 08:24 41.51515 71.28437 38166 ft 409 kts 246°
2026-05-08 08:24 41.48997 71.21619 38168 ft 409 kts 246°
2026-05-08 08:25 41.46386 71.14886 38175 ft 409 kts 245°
2026-05-08 08:25 41.43712 71.08194 38173 ft 409 kts 245°
2026-05-08 08:26 41.41042 71.01525 38181 ft 408 kts 245°
2026-05-08 08:26 41.38399 70.94911 38168 ft 407 kts 245°
2026-05-08 08:27 41.35737 70.88246 38194 ft 407 kts 245°
2026-05-08 08:27 41.33081 70.81611 38193 ft 406 kts 245°
2026-05-08 08:28 41.30427 70.74995 38196 ft 406 kts 245°
2026-05-08 08:28 41.27766 70.68377 38193 ft 406 kts 245°
2026-05-08 08:29 41.25098 70.61759 38191 ft 406 kts 245°
2026-05-08 08:29 41.22447 70.55196 38184 ft 406 kts 245°
2026-05-08 08:30 41.19773 70.48593 38174 ft 406 kts 245°
2026-05-08 08:30 41.15757 70.38699 38168 ft 406 kts 245°
2026-05-08 08:31 41.13076 70.32112 38154 ft 406 kts 245°
2026-05-08 08:31 41.10363 70.25550 38141 ft 407 kts 241°
2026-05-08 08:32 41.07090 70.19463 38134 ft 409 kts 236°
2026-05-08 08:32 41.03614 70.13498 38124 ft 409 kts 236°
2026-05-08 08:33 41.00098 70.07569 38113 ft 409 kts 236°
2026-05-08 08:33 40.96608 70.01682 38103 ft 409 kts 236°
2026-05-08 08:34 40.93104 69.95761 38086 ft 409 kts 236°
2026-05-08 08:34 40.89596 69.89836 38077 ft 409 kts 236°
2026-05-08 08:35 40.86088 69.83922 38064 ft 409 kts 236°
2026-05-08 08:35 40.82575 69.78010 38047 ft 409 kts 236°
2026-05-08 08:36 40.79084 69.72148 38042 ft 409 kts 236°
2026-05-08 08:36 40.75562 69.66246 38028 ft 409 kts 236°
2026-05-08 08:37 40.71832 69.60555 38018 ft 414 kts 226°
2026-05-08 08:37 40.66969 69.56368 38010 ft 424 kts 210°
2026-05-08 08:38 40.61548 69.53345 38001 ft 428 kts 206°
2026-05-08 08:38 40.55986 69.50537 37994 ft 428 kts 206°
2026-05-08 08:39 40.50419 69.47729 37992 ft 429 kts 206°
2026-05-08 08:39 40.44859 69.44883 37986 ft 429 kts 206°
2026-05-08 08:40 40.39303 69.42020 37984 ft 429 kts 206°
2026-05-08 08:40 40.33784 69.39176 37982 ft 429 kts 206°
2026-05-08 08:41 40.28222 69.36317 37980 ft 430 kts 206°
2026-05-08 08:41 40.22654 69.33462 37981 ft 430 kts 206°
2026-05-08 08:42 40.17078 69.30608 37980 ft 431 kts 206°
2026-05-08 08:42 40.11532 69.27774 37988 ft 431 kts 206°
2026-05-08 08:43 40.05947 69.24926 38001 ft 431 kts 206°
2026-05-08 08:43 40.00360 69.22081 38011 ft 431 kts 206°
2026-05-08 08:44 39.94774 69.19242 38033 ft 431 kts 206°
2026-05-08 08:44 39.89216 69.16422 38061 ft 431 kts 206°
2026-05-08 08:45 39.83621 69.13588 38094 ft 432 kts 206°
2026-05-08 08:45 39.78018 69.10755 38127 ft 432 kts 206°
2026-05-08 08:46 39.72403 69.07921 38150 ft 433 kts 207°
2026-05-08 08:46 39.66780 69.05087 38160 ft 435 kts 207°
2026-05-08 08:47 39.61160 69.02260 38200 ft 437 kts 207°
2026-05-08 08:47 39.55489 68.99411 37980 ft 438 kts 207°
2026-05-08 08:48 39.52647 68.97986 37725 ft 438 kts 207°
2026-05-08 08:48 39.49823 68.96572 37472 ft 439 kts 207°
2026-05-08 08:48 39.46963 68.95140 37238 ft 442 kts 207°
2026-05-08 08:48 39.44092 68.93703 36972 ft 444 kts 207°
2026-05-08 08:49 39.41215 68.92267 36533 ft 441 kts 207°
2026-05-08 08:49 39.39321 68.91322 36200 ft 441 kts 207°
2026-05-08 08:49 39.35495 68.89418 35568 ft 452 kts 205°
2026-05-08 08:49 39.32377 68.88455 35250 ft 470 kts 192°
2026-05-08 08:50 39.29094 68.88041 34934 ft 478 kts 189°
2026-05-08 08:50 39.25773 68.87748 34342 ft 477 kts 188°
2026-05-08 08:50 39.22459 68.87487 33423 ft 480 kts 188°
2026-05-08 08:50 39.19113 68.87229 32548 ft 483 kts 187°
2026-05-08 08:51 39.16891 68.87059 32007 ft 482 kts 187°
2026-05-08 08:51 39.13571 68.86807 31341 ft 475 kts 187°
2026-05-08 08:51 39.10280 68.86557 30755 ft 472 kts 186°
2026-05-08 08:51 39.05964 68.86227 29934 ft 467 kts 186°
2026-05-08 08:52 39.02737 68.85981 29275 ft 463 kts 186°
2026-05-08 08:52 38.99535 68.85737 28649 ft 458 kts 186°
2026-05-08 08:52 38.97431 68.85576 28237 ft 455 kts 186°
2026-05-08 08:52 38.94288 68.85336 27626 ft 451 kts 186°
2026-05-08 08:53 38.91177 68.85098 26970 ft 444 kts 186°
2026-05-08 08:53 38.88544 68.84897 26395 ft 436 kts 186°
2026-05-08 08:53 38.85549 68.84670 25691 ft 427 kts 186°
2026-05-08 08:53 38.82626 68.84363 25212 ft 413 kts 188°
2026-05-08 08:54 38.79833 68.84016 24906 ft 394 kts 188°
2026-05-08 08:54 38.77161 68.83677 24624 ft 377 kts 188°
2026-05-08 08:54 38.74610 68.83352 24354 ft 361 kts 188°
2026-05-08 08:54 38.72148 68.83040 23976 ft 351 kts 188°
2026-05-08 08:55 38.69730 68.82732 23665 ft 347 kts 188°
2026-05-08 08:55 38.67374 68.82245 23294 ft 340 kts 198°
2026-05-08 08:55 38.65219 68.81094 22853 ft 334 kts 214°
2026-05-08 08:55 38.63459 68.79232 22557 ft 322 kts 230°
2026-05-08 08:56 38.62221 68.76982 22280 ft 308 kts 241°
2026-05-08 08:56 38.61226 68.74583 21934 ft 303 kts 245°
2026-05-08 08:56 38.60356 68.72142 21599 ft 300 kts 247°
2026-05-08 08:56 38.59548 68.69710 21249 ft 297 kts 248°
2026-05-08 08:57 38.58750 68.67274 20869 ft 295 kts 248°
2026-05-08 08:57 38.57950 68.64861 20488 ft 294 kts 248°
2026-05-08 08:57 38.57140 68.62469 20123 ft 293 kts 247°
2026-05-08 08:57 38.56322 68.60095 19759 ft 291 kts 247°
2026-05-08 08:58 38.55500 68.57738 19416 ft 290 kts 246°
2026-05-08 08:58 38.54674 68.55393 19076 ft 289 kts 246°
2026-05-08 08:58 38.53850 68.53059 18737 ft 287 kts 246°
2026-05-08 08:58 38.53038 68.50765 18401 ft 287 kts 246°
2026-05-08 08:59 38.52220 68.48450 18014 ft 286 kts 246°
2026-05-08 08:59 38.51404 68.46145 17690 ft 282 kts 246°
2026-05-08 08:59 38.50610 68.43903 17376 ft 274 kts 246°
2026-05-08 08:59 38.49829 68.41697 17048 ft 271 kts 246°
2026-05-08 09:00 38.49055 68.39511 16717 ft 269 kts 246°
2026-05-08 09:00 38.48285 68.37339 16380 ft 268 kts 246°
2026-05-08 09:00 38.47518 68.35177 16043 ft 267 kts 246°
2026-05-08 09:00 38.46765 68.33055 15722 ft 266 kts 246°
2026-05-08 09:01 38.46003 68.30909 15383 ft 265 kts 247°
2026-05-08 09:01 38.45406 68.28690 15037 ft 264 kts 259°
2026-05-08 09:01 38.45234 68.26365 14687 ft 264 kts 274°
2026-05-08 09:01 38.45596 68.24088 14346 ft 263 kts 292°
2026-05-08 09:02 38.46510 68.22081 14019 ft 262 kts 311°
2026-05-08 09:02 38.47884 68.20582 13690 ft 261 kts 330°
2026-05-08 09:02 38.49559 68.19750 13367 ft 258 kts 349°
2026-05-08 09:02 38.51342 68.19652 13068 ft 257 kts
2026-05-08 09:03 38.53023 68.20264 12765 ft 256 kts 25°
2026-05-08 09:03 38.54490 68.21527 12460 ft 255 kts 43°
2026-05-08 09:03 38.55571 68.23306 12165 ft 253 kts 61°
2026-05-08 09:03 38.56162 68.25400 11853 ft 252 kts 79°
2026-05-08 09:04 38.56220 68.27627 11578 ft 251 kts 96°
2026-05-08 09:04 38.55594 68.29696 11271 ft 254 kts 126°
2026-05-08 09:04 38.54240 68.31114 10956 ft 255 kts 156°
2026-05-08 09:04 38.52524 68.31623 10669 ft 254 kts 176°
2026-05-08 09:05 38.50792 68.31521 10399 ft 253 kts 192°
2026-05-08 09:05 38.49088 68.31001 10139 ft 252 kts 195°
2026-05-08 09:05 38.47397 68.30428 9880 ft 251 kts 195°
2026-05-08 09:05 38.45719 68.29837 9567 ft 250 kts 200°
2026-05-08 09:06 38.44271 68.28683 9226 ft 246 kts 230°
2026-05-08 09:06 38.43491 68.26796 8887 ft 241 kts 260°
2026-05-08 09:06 38.43286 68.24688 8585 ft 238 kts 271°
2026-05-08 09:06 38.43558 68.22626 8264 ft 236 kts 294°
2026-05-08 09:07 38.44512 68.20957 7953 ft 234 kts 323°
2026-05-08 09:07 38.45995 68.20181 7645 ft 234 kts 355°
2026-05-08 09:07 38.47580 68.20527 7346 ft 234 kts 27°
2026-05-08 09:07 38.48777 68.21845 7075 ft 232 kts 57°
2026-05-08 09:08 38.49390 68.23754 6758 ft 229 kts 75°
2026-05-08 09:08 38.49731 68.25704 6438 ft 228 kts 78°
2026-05-08 09:08 38.50043 68.27680 6072 ft 227 kts 78°
2026-05-08 09:08 38.50363 68.29648 5828 ft 226 kts 78°
2026-05-08 09:09 38.50693 68.31616 5790 ft 227 kts 78°
2026-05-08 09:09 38.51032 68.33587 5791 ft 227 kts 78°
2026-05-08 09:09 38.51375 68.35554 5792 ft 227 kts 78°
2026-05-08 09:09 38.51719 68.37526 5787 ft 227 kts 78°
2026-05-08 09:10 38.52065 68.39491 5786 ft 226 kts 77°
2026-05-08 09:10 38.52397 68.41376 5812 ft 209 kts 78°
2026-05-08 09:10 38.52703 68.43119 5800 ft 197 kts 78°
2026-05-08 09:10 38.52990 68.44763 5775 ft 180 kts 78°
2026-05-08 09:11 38.53250 68.46239 5783 ft 161 kts 78°
2026-05-08 09:11 38.53488 68.47602 5780 ft 154 kts 78°
2026-05-08 09:11 38.53707 68.48940 5801 ft 154 kts 80°
2026-05-08 09:11 38.53896 68.50291 5800 ft 154 kts 82°
2026-05-08 09:12 38.54091 68.51640 5795 ft 155 kts 77°
2026-05-08 09:12 38.54299 68.52986 5795 ft 154 kts 84°
2026-05-08 09:12 38.54366 68.54353 5800 ft 154 kts 89°
2026-05-08 09:12 38.54388 68.55726 5793 ft 154 kts 90°
2026-05-08 09:13 38.54389 68.57098 5793 ft 155 kts 91°
2026-05-08 09:13 38.54383 68.58473 5796 ft 155 kts 90°
2026-05-08 09:13 38.54404 68.59850 5654 ft 155 kts 89°
2026-05-08 09:13 38.54423 68.61217 5470 ft 155 kts 91°
2026-05-08 09:14 38.54417 68.62594 5246 ft 154 kts 91°
2026-05-08 09:14 38.54411 68.63956 5064 ft 154 kts 91°
2026-05-08 09:14 38.54409 68.65317 4845 ft 152 kts 91°
2026-05-08 09:14 38.54406 68.66674 4662 ft 153 kts 91°
2026-05-08 09:15 38.54403 68.68006 4465 ft 151 kts 91°
2026-05-08 09:15 38.54398 68.69350 4293 ft 151 kts 90°
2026-05-08 09:15 38.54395 68.70686 4116 ft 150 kts 90°
2026-05-08 09:15 38.54392 68.72016 3917 ft 150 kts 90°
2026-05-08 09:16 38.54389 68.73342 3708 ft 149 kts 90°
2026-05-08 09:16 38.54385 68.74661 3506 ft 149 kts 90°
2026-05-08 09:16 38.54380 68.75978 3326 ft 149 kts 90°
2026-05-08 09:16 38.54375 68.77096 3165 ft 149 kts 90°
2026-05-08 09:17 38.54375 68.78421 2953 ft 149 kts 90°
2026-05-08 09:17 38.54380 68.79748 2747 ft 150 kts 91°
2026-05-08 09:17 38.54374 68.81047 2599 ft 144 kts 91°
2026-05-08 09:17 38.54369 68.82146 2579 ft 88 kts 89°
2026-05-08 09:18 38.54369 68.82659 2578 ft 49 kts 90°
2026-05-08 09:18 38.54361 68.83065 2585 ft 41 kts 89°
2026-05-08 09:18 38.54376 68.83263 2578 ft 12 kts 53°
2026-05-08 09:18 38.54442 68.83287 2581 ft 10 kts 359°
2026-05-08 09:19 38.54510 68.83288 2582 ft 10 kts
2026-05-08 09:19 38.54580 68.83290 2580 ft 10 kts
2026-05-08 09:19 38.54648 68.83291 2581 ft 9 kts 359°
2026-05-08 09:19 38.54685 68.83252 2577 ft 6 kts 277°
2026-05-08 09:20 38.54686 68.83202 2583 ft 6 kts 271°
2026-05-08 09:20 38.54687 68.83149 2581 ft 6 kts 270°
2026-05-08 09:20 38.54686 68.83093 2581 ft 6 kts 270°
2026-05-08 09:20 38.54687 68.83032 2582 ft 8 kts 270°
2026-05-08 09:21 38.54687 68.82959 2582 ft 9 kts 270°
2026-05-08 09:21 38.54687 68.82878 2578 ft 10 kts 270°
2026-05-08 09:22 38.54698 68.82341 2585 ft 8 kts 272°
2026-05-08 09:23 38.54699 68.82273 2585 ft 8 kts 270°
2026-05-08 09:23 38.54699 68.82202 2585 ft 8 kts 270°
2026-05-08 09:23 38.54699 68.82127 2585 ft 9 kts 270°
2026-05-08 09:23 38.54699 68.82047 2585 ft 9 kts 270°
2026-05-08 09:24 38.54699 68.81964 2585 ft 10 kts 270°
2026-05-08 09:24 38.54699 68.81877 2585 ft 10 kts 270°
2026-05-08 09:24 38.54699 68.81786 2585 ft 10 kts 271°
2026-05-08 09:24 38.54700 68.81691 2585 ft 11 kts 270°
2026-05-08 09:25 38.54700 68.81600 2585 ft 10 kts 269°
2026-05-08 09:25 38.54687 68.81526 2582 ft 8 kts 265°
2026-05-08 09:25 38.54695 68.81464 2582 ft 7 kts 299°
2026-05-08 09:25 38.54733 68.81434 2581 ft 6 kts 350°
2026-05-08 09:26 38.54776 68.81427 2582 ft 5 kts 352°
2026-05-08 09:26 38.54802 68.81422 2580 ft 2 kts 352°
2026-05-08 09:26 38.54806 68.81422 2582 ft 0 kts 352°